Baudette, MN

4:13 PM CST on February 21, 2018 (GMT -0600)
Baudette International

Weather History for KBDE - March, 2014

Change the Weather History Date:

Thursday, March 27, 2014

  Actual Average Record
Temperature  
Mean Temperature 26 °F -  
Max Temperature 32 °F 41 °F 75 °F (1946)
Min Temperature 16 °F 18 °F -21 °F (1964)
Degree Days  
Heating Degree Days 40    
Moisture  
Dew Point 17 °F    
Average Humidity 73    
Maximum Humidity 92    
Minimum Humidity 46    
Precipitation  
Precipitation 0.00 in - - ()
Sea Level Pressure  
Sea Level Pressure 29.75 in    
Wind  
Wind Speed 10 mph (NNE)    
Max Wind Speed 16 mph    
Max Gust Speed -    
Visibility 8 miles    
Events Snow    
Averages and records for this station are not official NWS values.
T = Trace of Precipitation, MM = Missing Value Source: NWS Daily Summary

Daily Weather History Graph

Daily Weather History Graph

Search for Another Location

Airport or City:

Trip Planner

Search our weather history database for the weather conditions in past years. The results will help you decide how hot, cold, wet, or windy it might be!

Date:

Astronomy

Mar. 27, 2014 Rise Set
Actual Time 7:06 AM CDT 7:41 PM CDT
Civil Twilight 6:34 AM CDT 8:13 PM CDT
Nautical Twilight 5:57 AM CDT 8:51 PM CDT
Astronomical Twilight 5:18 AM CDT 9:30 PM CDT
Moon 5:14 AM CDT (3/27) 4:16 PM CDT (3/27)
Length of Visible Light 13h 38m
Length of Day
12h 35m
Waning Crescent, 13% of the Moon is Illuminated
Mar 27
Waning Crescent
Mar 30
New
Apr 7
First Quarter
Apr 15
Full
Apr 22
Last Quarter

Hourly Weather History & Observations

Time (CDT) Temp. Windchill Dew Point Humidity Pressure Visibility Wind Dir Wind Speed Gust Speed Precip Events Conditions
12:01 AM 23.0 °F 13.1 °F 21.0 °F 92% 29.68 in 1.5 mi East 9.2 mph - 0.00 in Snow Light Snow
12:20 AM 23.0 °F 12.4 °F 21.0 °F 92% 29.67 in 2.0 mi East 10.4 mph - 0.00 in Snow Light Snow
12:28 AM 23.0 °F 12.4 °F 21.0 °F 92% 29.67 in 2.5 mi East 10.4 mph - 0.00 in Snow Light Snow
12:39 AM 23.0 °F 12.4 °F 19.9 °F 88% 29.67 in 3.0 mi East 10.4 mph - 0.00 in Snow Light Snow
12:53 AM 23.0 °F 12.4 °F 19.9 °F 88% 29.72 in 5.0 mi East 10.4 mph - 0.00 in Snow Light Snow
1:53 AM 23.0 °F 13.9 °F 19.9 °F 88% 29.70 in 3.0 mi East 8.1 mph - 0.00 in Snow Light Snow
2:00 AM 23.0 °F 13.9 °F 19.9 °F 88% 29.64 in 2.5 mi ENE 8.1 mph - 0.00 in Snow Light Snow
2:10 AM 23.0 °F 14.7 °F 19.9 °F 88% 29.64 in 4.0 mi ENE 6.9 mph - 0.00 in Snow Light Snow
2:53 AM 21.9 °F 14.5 °F 19.9 °F 92% 29.69 in 9.0 mi ENE 5.8 mph - 0.00 in   Overcast
3:53 AM 21.9 °F 11.7 °F 19.0 °F 89% 29.68 in 10.0 mi NE 9.2 mph - N/A   Overcast
4:53 AM 21.9 °F 13.4 °F 19.0 °F 89% 29.70 in 10.0 mi NNE 6.9 mph - N/A   Overcast
5:53 AM 21.9 °F 11.7 °F 19.0 °F 89% 29.72 in 10.0 mi NNE 9.2 mph - N/A   Overcast
6:53 AM 21.9 °F 11.0 °F 19.0 °F 89% 29.73 in 10.0 mi North 10.4 mph - N/A   Overcast
7:53 AM 21.0 °F 11.4 °F 18.0 °F 88% 29.75 in 10.0 mi North 8.1 mph - N/A   Overcast
8:25 AM 19.9 °F 10.1 °F 17.1 °F 89% 29.70 in 10.0 mi North 8.1 mph - N/A   Scattered Clouds
8:53 AM 19.9 °F 8.6 °F 17.1 °F 89% 29.75 in 10.0 mi North 10.4 mph - N/A   Clear
9:53 AM 23.0 °F 11.7 °F 17.1 °F 78% 29.77 in 10.0 mi NNE 11.5 mph - N/A   Clear
10:53 AM 26.1 °F 15.6 °F 18.0 °F 71% 29.77 in 10.0 mi NNE 11.5 mph - N/A   Scattered Clouds
11:06 AM 26.1 °F 16.2 °F 18.0 °F 71% 29.72 in 10.0 mi NNE 10.4 mph - N/A   Mostly Cloudy
11:53 AM 27.0 °F 16.1 °F 18.0 °F 69% 29.78 in 10.0 mi NNE 12.7 mph - N/A   Overcast
12:53 PM 28.0 °F 17.5 °F 18.0 °F 66% 29.78 in 10.0 mi North 12.7 mph - N/A   Overcast
1:38 PM 28.9 °F 18.6 °F 18.0 °F 64% 29.73 in 10.0 mi NNE 12.7 mph - N/A   Mostly Cloudy
1:45 PM 28.9 °F 18.2 °F 18.0 °F 64% 29.73 in 10.0 mi North 13.8 mph - N/A   Mostly Cloudy
1:53 PM 28.9 °F 17.7 °F 18.0 °F 64% 29.79 in 10.0 mi North 15.0 mph - N/A   Overcast
2:09 PM 28.9 °F 17.3 °F 18.0 °F 64% 29.73 in 10.0 mi North 16.1 mph - N/A   Overcast
2:33 PM 28.9 °F 17.3 °F 17.1 °F 61% 29.73 in 10.0 mi North 16.1 mph - N/A   Overcast
2:53 PM 30.9 °F 20.7 °F 18.0 °F 59% 29.78 in 10.0 mi North 13.8 mph - N/A   Mostly Cloudy
3:53 PM 30.9 °F 22.8 °F 18.0 °F 59% 29.78 in 10.0 mi NNW 9.2 mph - N/A   Mostly Cloudy
4:53 PM 32.0 °F 23.0 °F 15.1 °F 50% 29.78 in 10.0 mi NNW 11.5 mph - N/A   Clear
5:53 PM 30.9 °F 20.2 °F 12.0 °F 46% 29.79 in 10.0 mi North 15.0 mph - N/A   Clear
6:53 PM 30.0 °F 21.7 °F 12.0 °F 47% 29.82 in 10.0 mi NNW 9.2 mph - N/A   Clear
7:53 PM 27.0 °F 18.0 °F 10.0 °F 49% 29.84 in 10.0 mi NNW 9.2 mph - N/A   Clear
8:53 PM 25.0 °F 14.2 °F 7.0 °F 46% 29.86 in 10.0 mi NNW 11.5 mph - N/A   Clear
9:53 PM 21.9 °F 11.0 °F 5.0 °F 48% 29.88 in 10.0 mi North 10.4 mph - N/A   Clear
10:53 PM 19.0 °F 6.8 °F 5.0 °F 54% 29.91 in 10.0 mi NNW 11.5 mph - N/A   Clear
11:53 PM 16.0 °F 2.3 °F 5.0 °F 62% 29.95 in 10.0 mi NNW 12.7 mph - N/A   Clear